• In Uzbekistan
  • List of Countries
  • For 7 days
  • Water Temperature
  • Satellite Maps
  • Weather Map
  • Weather Widgets
  • user-avatar
    Login

    Hourly Weather Gagra

    Today, 20 November, Monday

    Time Temperature Precipitation Wind Pressure Humidity
    00:00 +13°C° 0.4 mm 4 mps 731 mmHg 57%
    01:00 +13°C° 0.4 mm 4 mps 731 mmHg 58%
    02:00 +13°C° 0.4 mm 4 mps 731 mmHg 59%
    03:00 +13°C° 0.4 mm 4 mps 731 mmHg 61%
    04:00 +13°C° 0.3 mm 4 mps 731 mmHg 63%
    05:00 +13°C° 0.3 mm 5 mps 731 mmHg 64%
    06:00 +13°C° 0.3 mm 5 mps 730 mmHg 66%
    07:00 +13°C° 0 mm 5 mps 730 mmHg 66%
    08:00 +14°C° 0 mm 5 mps 730 mmHg 67%
    09:00 +14°C° 0 mm 5 mps 730 mmHg 67%
    10:00 +15°C° 0 mm 5 mps 730 mmHg 63%
    11:00 +16°C° 0 mm 5 mps 730 mmHg 59%
    12:00 +17°C° 0 mm 5 mps 729 mmHg 54%
    13:00 +17°C° 0 mm 5 mps 729 mmHg 55%
    14:00 +17°C° 0 mm 5 mps 729 mmHg 55%
    15:00 +18°C° 0 mm 4 mps 729 mmHg 56%
    16:00 +15°C° 0 mm 4 mps 729 mmHg 59%
    17:00 +14°C° 0 mm 4 mps 729 mmHg 62%
    18:00 +13°C° 0 mm 3 mps 728 mmHg 65%
    19:00 +13°C° 0 mm 4 mps 728 mmHg 63%
    20:00 +13°C° 0 mm 4 mps 728 mmHg 61%
    21:00 +12°C° 0 mm 5 mps 727 mmHg 60%
    22:00 +12°C° 0 mm 5 mps 727 mmHg 59%
    23:00 +12°C° 0 mm 5 mps 727 mmHg 58%

    Tomorrow, 21 November, Tuesday

    Time Temperature Precipitation Wind Pressure Humidity
    00:00 +12°C° 0 mm 5 mps 727 mmHg 57%
    01:00 +12°C° 0 mm 5 mps 726 mmHg 57%
    02:00 +12°C° 0 mm 5 mps 726 mmHg 57%
    03:00 +13°C° 0 mm 5 mps 726 mmHg 57%
    04:00 +13°C° 0.1 mm 5 mps 725 mmHg 59%
    05:00 +13°C° 0.1 mm 5 mps 725 mmHg 61%
    06:00 +12°C° 0.1 mm 5 mps 725 mmHg 63%
    07:00 +13°C° 0.1 mm 5 mps 724 mmHg 63%
    08:00 +13°C° 0.1 mm 5 mps 724 mmHg 63%
    09:00 +13°C° 0.1 mm 5 mps 724 mmHg 63%
    10:00 +14°C° 0.1 mm 5 mps 724 mmHg 62%
    11:00 +15°C° 0.1 mm 5 mps 723 mmHg 61%
    12:00 +16°C° 0.1 mm 5 mps 723 mmHg 60%
    13:00 +16°C° 0.1 mm 5 mps 723 mmHg 59%
    14:00 +17°C° 0.1 mm 4 mps 723 mmHg 59%
    15:00 +17°C° 0.1 mm 4 mps 722 mmHg 58%
    16:00 +15°C° 0.9 mm 4 mps 723 mmHg 66%
    17:00 +13°C° 0.9 mm 4 mps 724 mmHg 73%
    18:00 +12°C° 0.9 mm 5 mps 724 mmHg 80%
    19:00 +11°C° 2.1 mm 6 mps 725 mmHg 84%
    20:00 +10°C° 2.1 mm 7 mps 726 mmHg 88%
    21:00 +10°C° 2.1 mm 8 mps 727 mmHg 93%
    22:00 +9°C° 1.9 mm 8 mps 728 mmHg 92%
    23:00 +7°C° 1.9 mm 8 mps 729 mmHg 92%

    Day after tomorrow, 22 November, Wednesday

    Time Temperature Precipitation Wind Pressure Humidity
    00:00 +6°C° 1.9 mm 8 mps 730 mmHg 92%
    01:00 +6°C° 0.5 mm 7 mps 731 mmHg 91%
    02:00 +5°C° 0.5 mm 7 mps 732 mmHg 90%
    03:00 +4°C° 0.5 mm 6 mps 732 mmHg 89%
    04:00 +5°C° 0.2 mm 5 mps 733 mmHg 88%
    05:00 +5°C° 0.2 mm 5 mps 733 mmHg 86%
    06:00 +4°C° 0.2 mm 4 mps 733 mmHg 85%
    07:00 +4°C° 0 mm 4 mps 734 mmHg 82%
    08:00 +4°C° 0 mm 3 mps 734 mmHg 80%
    09:00 +4°C° 0 mm 3 mps 734 mmHg 77%
    10:00 +4°C° 0 mm 3 mps 734 mmHg 69%
    11:00 +6°C° 0 mm 2 mps 734 mmHg 61%
    12:00 +7°C° 0 mm 2 mps 734 mmHg 52%
    13:00 +6°C° 0 mm 2 mps 734 mmHg 53%
    14:00 +6°C° 0 mm 2 mps 734 mmHg 54%
    15:00 +6°C° 0 mm 2 mps 734 mmHg 54%
    16:00 +5°C° 0 mm 2 mps 734 mmHg 58%
    17:00 +3°C° 0 mm 2 mps 734 mmHg 61%
    18:00 +2°C° 0 mm 2 mps 734 mmHg 65%
    19:00 +2°C° 0 mm 2 mps 733 mmHg 63%
    20:00 +1°C° 0 mm 3 mps 733 mmHg 62%
    21:00 0°C° 0 mm 4 mps 733 mmHg 60%
    22:00 +1°C° 0.2 mm 5 mps 732 mmHg 63%
    23:00 +1°C° 0.2 mm 6 mps 732 mmHg 66%

    23 November, Thursday

    Time Temperature Precipitation Wind Pressure Humidity
    00:00 +2°C° 0.2 mm 7 mps 731 mmHg 70%
    01:00 +2°C° 1.1 mm 7 mps 731 mmHg 73%
    02:00 +2°C° 1.1 mm 6 mps 731 mmHg 76%
    03:00 +2°C° 1.1 mm 6 mps 730 mmHg 79%
    04:00 +2°C° 1.1 mm 7 mps 731 mmHg 80%
    05:00 +2°C° 1.1 mm 7 mps 731 mmHg 81%
    06:00 +2°C° 1.1 mm 7 mps 731 mmHg 82%
    07:00 +2°C° 0.7 mm 7 mps 731 mmHg 82%
    08:00 +2°C° 0.7 mm 7 mps 732 mmHg 82%
    09:00 +2°C° 0.7 mm 6 mps 732 mmHg 82%
    10:00 +2°C° 1.1 mm 6 mps 733 mmHg 82%
    11:00 +2°C° 1.1 mm 6 mps 733 mmHg 81%
    12:00 +2°C° 1.1 mm 5 mps 733 mmHg 81%
    13:00 +2°C° 0.6 mm 6 mps 734 mmHg 81%
    14:00 +2°C° 0.6 mm 6 mps 734 mmHg 81%
    15:00 +2°C° 0.6 mm 7 mps 735 mmHg 81%
    16:00 0°C° 0.2 mm 7 mps 735 mmHg 82%
    17:00 +1°C° 0.2 mm 6 mps 736 mmHg 83%
    18:00 -1°C° 0.2 mm 6 mps 736 mmHg 84%
    19:00 0°C° 0.1 mm 5 mps 737 mmHg 84%
    20:00 0°C° 0.1 mm 5 mps 737 mmHg 84%
    21:00 -1°C° 0.1 mm 4 mps 737 mmHg 84%
    22:00 -1°C° 0 mm 4 mps 737 mmHg 84%
    23:00 0°C° 0 mm 3 mps 738 mmHg 84%

    24 November, Friday

    Time Temperature Precipitation Wind Pressure Humidity
    00:00 -1°C° 0 mm 3 mps 738 mmHg 84%
    01:00 -2°C° 0 mm 3 mps 738 mmHg 84%
    02:00 -3°C° 0 mm 2 mps 738 mmHg 83%
    03:00 -3°C° 0 mm 2 mps 738 mmHg 82%
    04:00 -4°C° 0 mm 2 mps 738 mmHg 80%
    05:00 -4°C° 0 mm 2 mps 738 mmHg 78%
    06:00 -5°C° 0 mm 2 mps 738 mmHg 76%
    07:00 -4°C° 0 mm 2 mps 739 mmHg 74%
    08:00 -3°C° 0 mm 2 mps 739 mmHg 73%
    09:00 -2°C° 0 mm 2 mps 739 mmHg 71%
    10:00 +1°C° 0 mm 2 mps 739 mmHg 69%
    11:00 +2°C° 0 mm 2 mps 739 mmHg 68%
    12:00 +3°C° 0 mm 2 mps 739 mmHg 66%
    13:00 +3°C° 0.1 mm 2 mps 739 mmHg 67%
    14:00 +3°C° 0.1 mm 2 mps 738 mmHg 69%
    15:00 +2°C° 0.1 mm 2 mps 738 mmHg 70%
    16:00 +2°C° 0.1 mm 2 mps 738 mmHg 73%
    17:00 +1°C° 0.1 mm 2 mps 739 mmHg 76%
    18:00 -1°C° 0.1 mm 2 mps 739 mmHg 78%
    19:00 -1°C° 0.2 mm 2 mps 739 mmHg 79%
    20:00 -1°C° 0.2 mm 2 mps 739 mmHg 80%
    21:00 -1°C° 0.2 mm 2 mps 739 mmHg 81%
    22:00 -1°C° 0.5 mm 2 mps 739 mmHg 82%
    23:00 -1°C° 0.5 mm 2 mps 738 mmHg 84%

    25 November, Saturday

    Time Temperature Precipitation Wind Pressure Humidity
    00:00 -1°C° 0.5 mm 2 mps 738 mmHg 86%
    01:00 -1°C° 0.7 mm 2 mps 738 mmHg 88%
    02:00 -1°C° 0.7 mm 2 mps 738 mmHg 89%
    03:00 -1°C° 0.7 mm 3 mps 738 mmHg 90%
    04:00 -1°C° 0.8 mm 3 mps 738 mmHg 89%
    05:00 -1°C° 0.8 mm 3 mps 738 mmHg 88%
    06:00 -1°C° 0.8 mm 3 mps 738 mmHg 88%
    07:00 -1°C° 0.7 mm 3 mps 739 mmHg 85%
    08:00 0°C° 0.7 mm 3 mps 739 mmHg 83%
    09:00 0°C° 0.7 mm 3 mps 739 mmHg 81%
    10:00 +1°C° 0.4 mm 3 mps 739 mmHg 78%
    11:00 +2°C° 0.4 mm 3 mps 740 mmHg 74%
    12:00 +3°C° 0.4 mm 3 mps 740 mmHg 71%
    13:00 +4°C° 0 mm 2 mps 740 mmHg 71%
    14:00 +4°C° 0 mm 2 mps 740 mmHg 72%
    15:00 +3°C° 0 mm 2 mps 741 mmHg 73%
    16:00 +2°C° 0 mm 2 mps 741 mmHg 76%
    17:00 +2°C° 0 mm 1 mps 741 mmHg 79%
    18:00 0°C° 0 mm 1 mps 742 mmHg 82%
    19:00 -2°C° 0 mm 2 mps 742 mmHg 80%
    20:00 -3°C° 0 mm 2 mps 742 mmHg 78%
    21:00 -5°C° 0 mm 3 mps 743 mmHg 77%
    22:00 -5°C° 0 mm 3 mps 743 mmHg 74%
    23:00 -5°C° 0 mm 3 mps 743 mmHg 71%
    Show more